,,,PA_Meas_PMT16A,,PR_Meas_QMR101_102,,RH_Meas_QMH101,,SR_Meas_QMS101,,TA_Meas_QMH101,,GenWind,,GenWind,
date,time,status,PA,status,PR,status,RH,status,SR,status,TA,status,DirAvg,status,SpdAvg,
2012-05-26, 00:00:04,VALID,1000.86,VALID,0,VALID,61.2353,VALID,0,VALID,26.7055,VALID,189,VALID,2.92695,
2012-05-26, 00:01:04,VALID,1000.83,VALID,0,VALID,61.1285,VALID,0,VALID,26.7055,VALID,198,VALID,2.52148,
2012-05-26, 00:02:04,VALID,1000.79,VALID,0,VALID,61.3803,VALID,0,VALID,26.7251,VALID,204,VALID,1.89883,
2012-05-26, 00:03:04,VALID,1000.8,VALID,0,VALID,61.2124,VALID,0,VALID,26.7251,VALID,206,VALID,2.34258,
2012-05-26, 00:04:04,VALID,1000.8,VALID,0,VALID,61.1438,VALID,0,VALID,26.7446,VALID,191,VALID,2.48789,
2012-05-26, 00:05:04,VALID,1000.8,VALID,0,VALID,61.1514,VALID,0,VALID,26.7641,VALID,193,VALID,2.75352,
2012-05-26, 00:06:04,VALID,1000.76,VALID,0,VALID,61.6092,VALID,0,VALID,26.7641,VALID,195,VALID,2.77578,
2012-05-26, 00:07:04,VALID,1000.74,VALID,0,VALID,61.6016,VALID,0,VALID,26.7251,VALID,216,VALID,2.96953,
2012-05-26, 00:08:04,VALID,1000.73,VALID,0,VALID,61.243,VALID,0,VALID,26.7641,VALID,189,VALID,3.01992,
2012-05-26, 00:09:04,VALID,1000.71,VALID,0,VALID,61.6473,VALID,0,VALID,26.7836,VALID,202,VALID,2.81992,
2012-05-26, 00:10:04,VALID,1000.72,VALID,0,VALID,61.5024,VALID,0,VALID,26.7446,VALID,200,VALID,2.68203,
2012-05-26, 00:11:04,VALID,1000.68,VALID,0,VALID,62.0288,VALID,0,VALID,26.7446,VALID,202,VALID,1.95469,
2012-05-26, 00:12:04,VALID,1000.63,VALID,0,VALID,61.5253,VALID,0,VALID,26.7446,VALID,200,VALID,3.07266,
2012-05-26, 00:13:04,VALID,1000.62,VALID,0,VALID,61.3574,VALID,0,VALID,26.7836,VALID,198,VALID,2.25234,
2012-05-26, 00:14:04,VALID,1000.57,VALID,0,VALID,61.1972,VALID,0,VALID,26.8227,VALID,197,VALID,3.32891,
2012-05-26, 00:15:04,VALID,1000.55,VALID,0,VALID,61.1438,VALID,0,VALID,26.8422,VALID,204,VALID,3.41445,
2012-05-26, 00:16:04,VALID,1000.51,VALID,0,VALID,60.9301,VALID,0,VALID,26.9008,VALID,199,VALID,4.11406,
2012-05-26, 00:17:04,VALID,1000.51,VALID,0,VALID,61.3498,VALID,0,VALID,26.9399,VALID,203,VALID,3.30117,
2012-05-26, 00:18:04,VALID,1000.49,VALID,0,VALID,60.7852,VALID,0,VALID,26.9204,VALID,205,VALID,2.68398,
2012-05-26, 00:19:04,VALID,1000.47,VALID,0,VALID,60.7318,VALID,0,VALID,26.9399,VALID,196,VALID,3.3332,
2012-05-26, 00:20:04,VALID,1000.46,VALID,0,VALID,61.098,VALID,0,VALID,26.9204,VALID,199,VALID,1.91875,
2012-05-26, 00:21:04,VALID,1000.48,VALID,0,VALID,61.3879,VALID,0,VALID,26.9008,VALID,189,VALID,2.31719,
2012-05-26, 00:22:04,VALID,1000.46,VALID,0,VALID,60.9988,VALID,0,VALID,26.9008,VALID,205,VALID,2.3043,
2012-05-26, 00:23:04,VALID,1000.45,VALID,0,VALID,60.9988,VALID,0,VALID,26.9399,VALID,189,VALID,2.23203,
2012-05-26, 00:24:04,VALID,1000.41,VALID,0,VALID,61.1819,VALID,0,VALID,26.9594,VALID,186,VALID,2.31016,
2012-05-26, 00:25:04,VALID,1000.43,VALID,0,VALID,61.1133,VALID,0,VALID,26.9399,VALID,213,VALID,2.00898,
2012-05-26, 00:26:04,VALID,1000.4,VALID,0,VALID,61.2811,VALID,0,VALID,26.981,VALID,194,VALID,1.87461,
2012-05-26, 00:27:04,VALID,1000.39,VALID,0,VALID,60.8767,VALID,0,VALID,26.9789,VALID,195,VALID,2.28359,
2012-05-26, 00:28:04,VALID,1000.35,VALID,0,VALID,60.9759,VALID,0,VALID,27.0396,VALID,191,VALID,1.82344,
2012-05-26, 00:29:04,VALID,1000.33,VALID,0,VALID,60.8996,VALID,0,VALID,26.9594,VALID,192,VALID,1.29766,
2012-05-26, 00:30:04,VALID,1000.26,VALID,0,VALID,61.1743,VALID,0,VALID,26.9615,VALID,199,VALID,1.48203,
2012-05-26, 00:31:04,VALID,1000.25,VALID,0,VALID,61.1514,VALID,0,VALID,26.9419,VALID,242,VALID,1.01367,
2012-05-26, 00:32:04,VALID,1000.24,VALID,0,VALID,61.8762,VALID,0,VALID,26.9008,VALID,211,VALID,1.37539,
2012-05-26, 00:33:04,VALID,1000.21,VALID,0,VALID,61.1819,VALID,0,VALID,26.9419,VALID,234,VALID,2.07734,
2012-05-26, 00:34:04,VALID,1000.2,VALID,0,VALID,60.8996,VALID,0,VALID,27.0201,VALID,233,VALID,2.05547,
2012-05-26, 00:35:04,VALID,1000.19,VALID,0,VALID,60.8615,VALID,0,VALID,27.0571,VALID,196,VALID,1.28125,
2012-05-26, 00:36:04,VALID,1000.15,VALID,0,VALID,61.1819,VALID,0,VALID,27.0982,VALID,197,VALID,0.894141,
2012-05-26, 00:37:04,VALID,1000.16,VALID,0,VALID,60.9301,VALID,0,VALID,27.0396,VALID,192,VALID,1.40078,
2012-05-26, 00:38:04,VALID,1000.16,VALID,0,VALID,62.1814,VALID,0,VALID,26.9224,VALID,140,VALID,0.936719,
2012-05-26, 00:39:04,VALID,1000.12,VALID,0,VALID,63.1809,VALID,0,VALID,26.7661,VALID,156,VALID,0.294922,
2012-05-26, 00:40:04,VALID,1000.09,VALID,0,VALID,63.7989,VALID,0,VALID,26.6294,VALID,156,VALID,0.0804688,
2012-05-26, 00:41:04,VALID,1000.09,VALID,0,VALID,64.3024,VALID,0,VALID,26.5318,VALID,155,VALID,0.000390625,
2012-05-26, 00:42:04,VALID,1000.05,VALID,0,VALID,64.9815,VALID,0,VALID,26.4146,VALID,155,VALID,0.284766,
2012-05-26, 00:43:04,VALID,1000.04,VALID,0,VALID,65.1341,VALID,0,VALID,26.2759,VALID,155,VALID,0.319922,
2012-05-26, 00:44:04,VALID,1000.01,VALID,0,VALID,66.4616,VALID,0,VALID,26.1998,VALID,155,VALID,0.822266,
2012-05-26, 00:45:04,VALID,999.988,VALID,0,VALID,67.2933,VALID,0,VALID,26.0436,VALID,155,VALID,0.782422,
2012-05-26, 00:46:04,VALID,999.958,VALID,0,VALID,68.3004,VALID,0,VALID,25.8659,VALID,338,VALID,0.789063,
2012-05-26, 00:47:04,VALID,999.965,VALID,0,VALID,69.7195,VALID,0,VALID,25.7292,VALID,338,VALID,0.700781,
2012-05-26, 00:48:04,VALID,999.939,VALID,0,VALID,68.0257,VALID,0,VALID,25.6121,VALID,316,VALID,0.584766,
2012-05-26, 00:49:04,VALID,999.898,VALID,0,VALID,70.2535,VALID,0,VALID,25.614,VALID,316,VALID,0.487891,
2012-05-26, 00:50:04,VALID,999.9,VALID,0,VALID,69.0252,VALID,0,VALID,25.5164,VALID,297,VALID,0.632422,
2012-05-26, 00:51:04,VALID,999.889,VALID,0,VALID,68.4148,VALID,0,VALID,25.5555,VALID,286,VALID,0.858594,
2012-05-26, 00:52:04,VALID,999.869,VALID,0,VALID,67.8807,VALID,0,VALID,25.5926,VALID,270,VALID,1.12031,
2012-05-26, 00:53:04,VALID,999.837,VALID,0,VALID,67.133,VALID,0,VALID,25.6902,VALID,275,VALID,1.56836,
2012-05-26, 00:54:04,VALID,999.782,VALID,0,VALID,67.133,VALID,0,VALID,25.8464,VALID,246,VALID,0.978906,
2012-05-26, 00:55:05,VALID,999.798,VALID,0,VALID,66.0725,VALID,0,VALID,25.9245,VALID,236,VALID,1.48477,
2012-05-26, 00:56:05,VALID,999.789,VALID,0,VALID,66.1488,VALID,0,VALID,26.0221,VALID,243,VALID,1.14453,
2012-05-26, 00:57:05,VALID,999.764,VALID,0,VALID,65.4469,VALID,0,VALID,26.1197,VALID,261,VALID,1.14844,
2012-05-26, 00:58:05,VALID,999.74,VALID,0,VALID,65.5308,VALID,0,VALID,26.1803,VALID,236,VALID,0.739062,
2012-05-26, 00:59:05,VALID,999.742,VALID,0,VALID,65.1341,VALID,0,VALID,26.1978,VALID,230,VALID,1.35977,
2012-05-26, 01:00:05,VALID,999.716,VALID,0,VALID,65.1341,VALID,0,VALID,26.2389,VALID,250,VALID,1.1707,
2012-05-26, 01:01:05,VALID,999.72,VALID,0,VALID,65.3095,VALID,0,VALID,26.2369,VALID,235,VALID,0.973828,
2012-05-26, 01:02:05,VALID,999.685,VALID,0,VALID,65.6224,VALID,0,VALID,26.1978,VALID,247,VALID,1.23555,
2012-05-26, 01:03:05,VALID,999.681,VALID,0,VALID,65.5537,VALID,0,VALID,26.1803,VALID,228,VALID,1.38359,
2012-05-26, 01:04:05,VALID,999.638,VALID,0,VALID,65.0959,VALID,0,VALID,26.1783,VALID,223,VALID,1.64023,
2012-05-26, 01:05:05,VALID,999.624,VALID,0,VALID,65.073,VALID,0,VALID,26.317,VALID,214,VALID,1.66602,
2012-05-26, 01:06:05,VALID,999.595,VALID,0,VALID,64.5618,VALID,0,VALID,26.354,VALID,226,VALID,1.56211,
2012-05-26, 01:07:05,VALID,999.565,VALID,0,VALID,64.4245,VALID,0,VALID,26.3931,VALID,207,VALID,2.07773,
2012-05-26, 01:08:05,VALID,999.536,VALID,0,VALID,64.2872,VALID,0,VALID,26.4537,VALID,209,VALID,1.47695,
2012-05-26, 01:09:05,VALID,999.516,VALID,0,VALID,64.1498,VALID,0,VALID,26.4712,VALID,208,VALID,1.65469,
2012-05-26, 01:10:05,VALID,999.538,VALID,0,VALID,64.1575,VALID,0,VALID,26.4712,VALID,212,VALID,1.80977,
2012-05-26, 01:11:05,VALID,999.563,VALID,0,VALID,63.9133,VALID,0,VALID,26.5123,VALID,208,VALID,2.11289,
2012-05-26, 01:12:05,VALID,999.549,VALID,0,VALID,63.837,VALID,0,VALID,26.5884,VALID,212,VALID,1.50625,
2012-05-26, 01:13:05,VALID,999.543,VALID,0,VALID,63.6234,VALID,0,VALID,26.6274,VALID,218,VALID,2.03906,
2012-05-26, 01:14:05,VALID,999.517,VALID,0,VALID,63.6692,VALID,0,VALID,26.649,VALID,196,VALID,1.77344,
2012-05-26, 01:15:05,VALID,999.493,VALID,0,VALID,63.8981,VALID,0,VALID,26.6294,VALID,235,VALID,1.39844,
2012-05-26, 01:16:05,VALID,999.471,VALID,0,VALID,63.7989,VALID,0,VALID,26.5884,VALID,220,VALID,1.4293,
2012-05-26, 01:17:05,VALID,999.494,VALID,0,VALID,63.8523,VALID,0,VALID,26.6099,VALID,213,VALID,1.2043,
2012-05-26, 01:18:05,VALID,999.483,VALID,0,VALID,64.043,VALID,0,VALID,26.5904,VALID,228,VALID,0.825781,
2012-05-26, 01:19:05,VALID,999.472,VALID,0,VALID,64.1422,VALID,0,VALID,26.5708,VALID,239,VALID,1.16875,
2012-05-26, 01:20:05,VALID,999.463,VALID,0,VALID,64.4703,VALID,0,VALID,26.5123,VALID,220,VALID,0.921094,
2012-05-26, 01:21:05,VALID,999.444,VALID,0,VALID,64.8594,VALID,0,VALID,26.4732,VALID,192,VALID,1.05508,
2012-05-26, 01:22:05,VALID,999.44,VALID,0,VALID,64.6076,VALID,0,VALID,26.4321,VALID,199,VALID,1.32031,
2012-05-26, 01:23:05,VALID,999.462,VALID,0,VALID,64.8975,VALID,0,VALID,26.4537,VALID,236,VALID,0.953125,
2012-05-26, 01:24:05,VALID,999.384,VALID,0,VALID,64.8289,VALID,0,VALID,26.4126,VALID,238,VALID,1.27227,
2012-05-26, 01:25:05,VALID,999.427,VALID,0,VALID,64.7907,VALID,0,VALID,26.4341,VALID,195,VALID,2.00078,
2012-05-26, 01:26:05,VALID,999.403,VALID,0,VALID,64.6381,VALID,0,VALID,26.4732,VALID,222,VALID,1.91133,
2012-05-26, 01:27:05,VALID,999.399,VALID,0,VALID,64.6076,VALID,0,VALID,26.5102,VALID,206,VALID,1.91367,
2012-05-26, 01:28:05,VALID,999.41,VALID,0,VALID,64.5618,VALID,0,VALID,26.5513,VALID,209,VALID,1.58203,
2012-05-26, 01:29:05,VALID,999.391,VALID,0,VALID,64.7526,VALID,0,VALID,26.5493,VALID,207,VALID,1.50156,
2012-05-26, 01:30:05,VALID,999.375,VALID,0,VALID,64.7678,VALID,0,VALID,26.5298,VALID,207,VALID,1.23242,
2012-05-26, 01:31:05,VALID,999.413,VALID,0,VALID,64.7907,VALID,0,VALID,26.4712,VALID,194,VALID,1.28594,
2012-05-26, 01:32:05,VALID,999.414,VALID,0,VALID,65.0425,VALID,0,VALID,26.4517,VALID,220,VALID,0.8875,
2012-05-26, 01:33:05,VALID,999.415,VALID,0,VALID,65.012,VALID,0,VALID,26.4126,VALID,199,VALID,0.755859,
2012-05-26, 01:34:05,VALID,999.387,VALID,0,VALID,65.4087,VALID,0,VALID,26.3756,VALID,234,VALID,0.855859,
2012-05-26, 01:35:05,VALID,999.375,VALID,0,VALID,65.3172,VALID,0,VALID,26.3365,VALID,200,VALID,1.22422,
2012-05-26, 01:36:05,VALID,999.394,VALID,0,VALID,65.5079,VALID,0,VALID,26.354,VALID,196,VALID,0.833984,
2012-05-26, 01:37:05,VALID,999.37,VALID,0,VALID,65.5232,VALID,0,VALID,26.356,VALID,198,VALID,0.798828,
2012-05-26, 01:38:05,VALID,999.372,VALID,0,VALID,65.5308,VALID,0,VALID,26.356,VALID,180,VALID,1.2207,
2012-05-26, 01:39:05,VALID,999.388,VALID,0,VALID,68.6666,VALID,0,VALID,26.2564,VALID,326,VALID,1.00273,
2012-05-26, 01:40:05,VALID,999.391,VALID,0,VALID,71.9168,VALID,0,VALID,25.7292,VALID,12,VALID,1.09375,
2012-05-26, 01:41:05,VALID,999.406,VALID,0,VALID,75.3272,VALID,0,VALID,25.2236,VALID,30,VALID,1.41367,
2012-05-26, 01:42:05,VALID,999.345,VALID,0,VALID,77.2194,VALID,0,VALID,24.7337,VALID,29,VALID,1.13203,
2012-05-26, 01:43:05,VALID,999.372,VALID,0,VALID,78.6614,VALID,0,VALID,24.4037,VALID,26,VALID,0.617578,
2012-05-26, 01:44:05,VALID,999.341,VALID,0,VALID,79.6151,VALID,0,VALID,24.1482,VALID,32,VALID,0.767578,
2012-05-26, 01:45:05,VALID,999.318,VALID,0,VALID,80.5001,VALID,0,VALID,23.9549,VALID,42,VALID,1.30117,
2012-05-26, 01:46:05,VALID,999.295,VALID,0,VALID,81.2249,VALID,0,VALID,23.7597,VALID,48,VALID,1.13633,
2012-05-26, 01:47:05,VALID,999.304,VALID,0,VALID,81.4843,VALID,0,VALID,23.5841,VALID,51,VALID,0.954297,
2012-05-26, 01:48:05,VALID,999.338,VALID,0,VALID,81.4843,VALID,0,VALID,23.5646,VALID,51,VALID,0.636328,
2012-05-26, 01:49:05,VALID,999.313,VALID,0,VALID,81.7514,VALID,0,VALID,23.5451,VALID,51,VALID,0.346094,
2012-05-26, 01:50:05,VALID,999.341,VALID,0,VALID,82.2549,VALID,0,VALID,23.4866,VALID,47,VALID,0.519922,
2012-05-26, 01:51:05,VALID,999.325,VALID,0,VALID,82.4762,VALID,0,VALID,23.428,VALID,36,VALID,0.564062,
2012-05-26, 01:52:05,VALID,999.33,VALID,0,VALID,82.9111,VALID,0,VALID,23.3677,VALID,27,VALID,0.326562,
2012-05-26, 01:53:05,VALID,999.328,VALID,0,VALID,83.1552,VALID,0,VALID,23.3305,VALID,27,VALID,0.163672,
2012-05-26, 01:54:05,VALID,999.339,VALID,0,VALID,83.819,VALID,0,VALID,23.2915,VALID,18,VALID,0.886719,
2012-05-26, 01:55:05,VALID,999.287,VALID,0,VALID,84.0021,VALID,0,VALID,23.2312,VALID,17,VALID,0.793359,
2012-05-26, 01:56:05,VALID,999.299,VALID,0,VALID,84.437,VALID,0,VALID,23.2117,VALID,344,VALID,1.04688,
2012-05-26, 01:57:05,VALID,999.288,VALID,0,VALID,84.6735,VALID,0,VALID,23.2117,VALID,347,VALID,0.451953,
2012-05-26, 01:58:05,VALID,999.303,VALID,0,VALID,85.1771,VALID,0,VALID,23.2134,VALID,347,VALID,0.784766,
2012-05-26, 01:59:05,VALID,999.298,VALID,0,VALID,85.7874,VALID,0,VALID,23.1726,VALID,347,VALID,0.23125,
2012-05-26, 02:00:05,VALID,999.295,VALID,0,VALID,86.497,VALID,0,VALID,23.1549,VALID,347,VALID,0.292578,
2012-05-26, 02:01:05,VALID,999.298,VALID,0,VALID,86.2223,VALID,0,VALID,23.1354,VALID,347,VALID,0.0601562,
2012-05-26, 02:02:05,VALID,999.282,VALID,0,VALID,83.2849,VALID,0,VALID,23.1921,VALID,220,VALID,0.875391,
2012-05-26, 02:03:05,VALID,999.292,VALID,0,VALID,81.6903,VALID,0,VALID,23.4475,VALID,219,VALID,0.775,
2012-05-26, 02:04:05,VALID,999.286,VALID,0,VALID,80.5535,VALID,0,VALID,23.6994,VALID,211,VALID,0.324609,
2012-05-26, 02:05:05,VALID,999.299,VALID,0,VALID,77.1049,VALID,0,VALID,24.15,VALID,222,VALID,2.04063,
2012-05-26, 02:06:05,VALID,999.302,VALID,0,VALID,73.6182,VALID,0,VALID,24.8527,VALID,207,VALID,1.82813,
2012-05-26, 02:07:05,VALID,999.307,VALID,0,VALID,72.1762,VALID,0,VALID,25.2236,VALID,221,VALID,0.905859,
2012-05-26, 02:08:05,VALID,999.307,VALID,0,VALID,71.4132,VALID,0,VALID,25.4169,VALID,241,VALID,0.697266,
2012-05-26, 02:09:05,VALID,999.343,VALID,0,VALID,71.3904,VALID,0,VALID,25.4559,VALID,254,VALID,0.464063,
2012-05-26, 02:10:05,VALID,999.341,VALID,0,VALID,71.7032,VALID,0,VALID,25.4559,VALID,236,VALID,0.511719,
2012-05-26, 02:11:05,VALID,999.324,VALID,0,VALID,72.8095,VALID,0,VALID,25.3973,VALID,236,VALID,0.261719,
2012-05-26, 02:12:05,VALID,999.34,VALID,0,VALID,73.2291,VALID,0,VALID,25.2802,VALID,153,VALID,0.544141,
2012-05-26, 02:13:05,VALID,999.359,VALID,0,VALID,75.2281,VALID,0,VALID,25.0069,VALID,85,VALID,1.07813,
2012-05-26, 02:14:05,VALID,999.339,VALID,0,VALID,77.1889,VALID,0,VALID,24.6166,VALID,68,VALID,1.03945,
2012-05-26, 02:15:05,VALID,999.346,VALID,0,VALID,78.8063,VALID,0,VALID,24.2848,VALID,65,VALID,0.627344,
2012-05-26, 02:16:05,VALID,999.377,VALID,0,VALID,80.1644,VALID,0,VALID,24.0134,VALID,62,VALID,0.628516,
2012-05-26, 02:17:05,VALID,999.344,VALID,0,VALID,81.3394,VALID,0,VALID,23.8183,VALID,53,VALID,0.879297,
2012-05-26, 02:18:05,VALID,999.34,VALID,0,VALID,82.0947,VALID,0,VALID,23.6409,VALID,53,VALID,0.60625,
2012-05-26, 02:19:05,VALID,999.347,VALID,0,VALID,82.8806,VALID,0,VALID,23.4848,VALID,53,VALID,0.407031,
2012-05-26, 02:20:05,VALID,999.343,VALID,0,VALID,84.0021,VALID,0,VALID,23.389,VALID,53,VALID,0.705078,
2012-05-26, 02:21:05,VALID,999.382,VALID,0,VALID,86.5199,VALID,0,VALID,23.2719,VALID,41,VALID,0.808984,
2012-05-26, 02:22:05,VALID,999.363,VALID,0,VALID,87.6033,VALID,0,VALID,23.1531,VALID,32,VALID,1.12969,
2012-05-26, 02:23:05,VALID,999.326,VALID,0,VALID,88.145,VALID,0,VALID,23.0769,VALID,22,VALID,0.825781,
2012-05-26, 02:24:05,VALID,999.318,VALID,0,VALID,88.7783,VALID,0,VALID,22.9988,VALID,18,VALID,0.863672,
2012-05-26, 02:25:05,VALID,999.362,VALID,0,VALID,89.2818,VALID,0,VALID,22.9208,VALID,8,VALID,1.54961,
2012-05-26, 02:26:05,VALID,999.354,VALID,0,VALID,89.0911,VALID,0,VALID,22.8995,VALID,358,VALID,1.61484,
2012-05-26, 02:27:05,VALID,999.367,VALID,0,VALID,88.8851,VALID,0,VALID,22.919,VALID,358,VALID,1.33828,
2012-05-26, 02:28:05,VALID,999.37,VALID,0,VALID,88.5646,VALID,0,VALID,22.9598,VALID,354,VALID,1.04766,
2012-05-26, 02:29:05,VALID,999.398,VALID,0,VALID,88.8622,VALID,0,VALID,22.9971,VALID,337,VALID,0.849609,
2012-05-26, 02:30:05,VALID,999.391,VALID,0,VALID,88.9537,VALID,0,VALID,23.0183,VALID,336,VALID,0.353516,
2012-05-26, 02:31:05,VALID,999.387,VALID,0,VALID,88.9156,VALID,0,VALID,23.0378,VALID,322,VALID,0.504297,
2012-05-26, 02:32:05,VALID,999.391,VALID,0,VALID,88.8088,VALID,0,VALID,22.9988,VALID,46,VALID,1.23203,
2012-05-26, 02:33:05,VALID,999.381,VALID,0,VALID,89.0377,VALID,0,VALID,22.9385,VALID,2,VALID,0.503516,
2012-05-26, 02:34:05,VALID,999.37,VALID,0,VALID,88.3052,VALID,0,VALID,22.9385,VALID,3,VALID,0.374219,
2012-05-26, 02:35:05,VALID,999.38,VALID,0,VALID,87.6491,VALID,0,VALID,23.0573,VALID,3,VALID,0.577344,
2012-05-26, 02:36:05,VALID,999.358,VALID,0,VALID,86.5199,VALID,0,VALID,23.1531,VALID,3,VALID,0.280859,
2012-05-26, 02:37:05,VALID,999.352,VALID,0,VALID,86.5351,VALID,0,VALID,23.2897,VALID,47,VALID,1.04805,
2012-05-26, 02:38:05,VALID,999.351,VALID,0,VALID,86.8709,VALID,0,VALID,23.2702,VALID,66,VALID,1.46992,
2012-05-26, 02:39:05,VALID,999.314,VALID,0,VALID,87.5423,VALID,0,VALID,23.1531,VALID,46,VALID,1.57305,
2012-05-26, 02:40:05,VALID,999.323,VALID,0,VALID,88.1679,VALID,0,VALID,23.0769,VALID,46,VALID,1.48203,
2012-05-26, 02:41:05,VALID,999.332,VALID,0,VALID,88.5875,VALID,0,VALID,22.9971,VALID,60,VALID,1.12422,
2012-05-26, 02:42:05,VALID,999.308,VALID,0,VALID,88.9003,VALID,0,VALID,22.9385,VALID,56,VALID,1.10234,
2012-05-26, 02:43:05,VALID,999.293,VALID,0,VALID,89.0987,VALID,0,VALID,22.9208,VALID,48,VALID,1.4625,
2012-05-26, 02:44:05,VALID,999.271,VALID,0,VALID,89.3123,VALID,0,VALID,22.88,VALID,45,VALID,1.05078,
2012-05-26, 02:45:05,VALID,999.252,VALID,0,VALID,89.6709,VALID,0,VALID,22.841,VALID,43,VALID,1.54805,
2012-05-26, 02:46:05,VALID,999.241,VALID,0,VALID,89.7549,VALID,0,VALID,22.841,VALID,42,VALID,1.54766,
2012-05-26, 02:47:05,VALID,999.235,VALID,0,VALID,89.7625,VALID,0,VALID,22.8215,VALID,61,VALID,1.93516,
2012-05-26, 02:48:05,VALID,999.224,VALID,0,VALID,89.6862,VALID,0,VALID,22.7825,VALID,74,VALID,1.74023,
2012-05-26, 02:49:05,VALID,999.238,VALID,0,VALID,89.9074,VALID,0,VALID,22.7257,VALID,86,VALID,1.30039,
2012-05-26, 02:50:05,VALID,999.203,VALID,0,VALID,90.0219,VALID,0,VALID,22.646,VALID,66,VALID,1.57031,
2012-05-26, 02:51:05,VALID,999.192,VALID,0,VALID,90.0524,VALID,0,VALID,22.6477,VALID,79,VALID,0.905859,
2012-05-26, 02:52:05,VALID,999.152,VALID,0,VALID,90.1821,VALID,0,VALID,22.6087,VALID,87,VALID,0.436719,
2012-05-26, 02:53:05,VALID,999.162,VALID,0,VALID,90.205,VALID,0,VALID,22.5679,VALID,92,VALID,0.586328,
2012-05-26, 02:54:05,VALID,999.125,VALID,0,VALID,90.3347,VALID,0,VALID,22.5501,VALID,77,VALID,0.660937,
2012-05-26, 02:55:05,VALID,999.129,VALID,0,VALID,90.2737,VALID,0,VALID,22.5501,VALID,75,VALID,1.0793,
2012-05-26, 02:56:05,VALID,999.127,VALID,0,VALID,90.144,VALID,0,VALID,22.5501,VALID,61,VALID,0.732422,
2012-05-26, 02:57:05,VALID,999.116,VALID,0,VALID,90.0906,VALID,0,VALID,22.5484,VALID,54,VALID,0.530859,
2012-05-26, 02:58:05,VALID,999.073,VALID,0,VALID,90.2737,VALID,0,VALID,22.5289,VALID,343,VALID,1.01875,
2012-05-26, 02:59:05,VALID,999.123,VALID,0,VALID,90.3347,VALID,0,VALID,22.5094,VALID,360,VALID,0.797656,
2012-05-26, 03:00:05,VALID,999.089,VALID,0,VALID,90.5178,VALID,0,VALID,22.5289,VALID,4,VALID,0.912891,
2012-05-26, 03:01:05,VALID,999.104,VALID,0,VALID,90.6017,VALID,0,VALID,22.5094,VALID,346,VALID,0.205078,
2012-05-26, 03:02:05,VALID,999.101,VALID,0,VALID,90.4873,VALID,0,VALID,22.5289,VALID,356,VALID,0.969141,
2012-05-26, 03:03:05,VALID,999.078,VALID,0,VALID,90.2584,VALID,0,VALID,22.6087,VALID,10,VALID,0.995703,
2012-05-26, 03:04:05,VALID,999.072,VALID,0,VALID,89.8388,VALID,0,VALID,22.6264,VALID,10,VALID,0.566797,
2012-05-26, 03:05:05,VALID,999.06,VALID,0,VALID,89.6328,VALID,0,VALID,22.646,VALID,25,VALID,0.596094,
2012-05-26, 03:06:05,VALID,999.045,VALID,0,VALID,89.2971,VALID,0,VALID,22.6655,VALID,58,VALID,0.455078,
2012-05-26, 03:07:05,VALID,999.026,VALID,0,VALID,89.1292,VALID,0,VALID,22.6655,VALID,70,VALID,1.02109,
2012-05-26, 03:08:05,VALID,999.01,VALID,0,VALID,89.1063,VALID,0,VALID,22.7452,VALID,74,VALID,1.14297,
2012-05-26, 03:09:05,VALID,998.992,VALID,0,VALID,89.0606,VALID,0,VALID,22.7045,VALID,89,VALID,1.64688,
2012-05-26, 03:10:05,VALID,998.996,VALID,0,VALID,88.9385,VALID,0,VALID,22.7045,VALID,92,VALID,1.41211,
2012-05-26, 03:11:05,VALID,998.994,VALID,0,VALID,88.908,VALID,0,VALID,22.724,VALID,83,VALID,0.873438,
2012-05-26, 03:12:05,VALID,999.001,VALID,0,VALID,88.8774,VALID,0,VALID,22.7435,VALID,82,VALID,1.24375,
2012-05-26, 03:13:05,VALID,999.006,VALID,0,VALID,88.8164,VALID,0.104696,VALID,22.763,VALID,81,VALID,0.358594,
2012-05-26, 03:14:05,VALID,999.024,VALID,0,VALID,88.8851,VALID,0,VALID,22.7435,VALID,83,VALID,0.435547,
2012-05-26, 03:15:05,VALID,999.031,VALID,0,VALID,88.9766,VALID,0.104696,VALID,22.7647,VALID,77,VALID,0.524219,
2012-05-26, 03:16:05,VALID,999.041,VALID,0,VALID,89.0987,VALID,0,VALID,22.7045,VALID,352,VALID,0.558203,
2012-05-26, 03:17:05,VALID,999.042,VALID,0,VALID,89.0606,VALID,0,VALID,22.7435,VALID,336,VALID,0.736719,
2012-05-26, 03:18:05,VALID,999.051,VALID,0,VALID,88.6104,VALID,0,VALID,22.8037,VALID,360,VALID,0.830859,
2012-05-26, 03:19:05,VALID,999.079,VALID,0,VALID,88.29,VALID,0.104696,VALID,22.841,VALID,14,VALID,0.767969,
2012-05-26, 03:20:05,VALID,999.068,VALID,0,VALID,88.0077,VALID,0,VALID,22.9403,VALID,14,VALID,0.802734,
2012-05-26, 03:21:05,VALID,999.097,VALID,0,VALID,88,VALID,0,VALID,22.9598,VALID,30,VALID,1.07734,
2012-05-26, 03:22:05,VALID,999.115,VALID,0,VALID,88.1374,VALID,0.104696,VALID,22.9776,VALID,93,VALID,0.533594,
2012-05-26, 03:23:05,VALID,999.104,VALID,0,VALID,87.7559,VALID,0,VALID,23.0946,VALID,91,VALID,0.465625,
2012-05-26, 03:24:05,VALID,999.14,VALID,0,VALID,87.4049,VALID,0,VALID,23.1531,VALID,53,VALID,0.749609,
2012-05-26, 03:25:05,VALID,999.149,VALID,0,VALID,87.1074,VALID,0,VALID,23.1531,VALID,53,VALID,0.769531,
2012-05-26, 03:26:05,VALID,999.155,VALID,0,VALID,87.4507,VALID,0,VALID,23.0946,VALID,49,VALID,0.955469,
2012-05-26, 03:27:05,VALID,999.141,VALID,0,VALID,87.794,VALID,0,VALID,23.0183,VALID,38,VALID,0.824609,
2012-05-26, 03:28:05,VALID,999.18,VALID,0,VALID,88.2823,VALID,0,VALID,22.919,VALID,29,VALID,0.6875,
2012-05-26, 03:29:05,VALID,999.175,VALID,0,VALID,88.6257,VALID,0,VALID,22.8215,VALID,29,VALID,0.548828,
2012-05-26, 03:30:05,VALID,999.229,VALID,0,VALID,89.0758,VALID,0,VALID,22.7435,VALID,10,VALID,0.858984,
2012-05-26, 03:31:05,VALID,999.24,VALID,0,VALID,89.4649,VALID,0,VALID,22.7257,VALID,10,VALID,1.00508,
2012-05-26, 03:32:05,VALID,999.247,VALID,0,VALID,89.5107,VALID,0,VALID,22.7452,VALID,10,VALID,0.735937,
2012-05-26, 03:33:05,VALID,999.287,VALID,0,VALID,89.3657,VALID,0,VALID,22.7647,VALID,10,VALID,0.845312,
2012-05-26, 03:34:05,VALID,999.294,VALID,0,VALID,89.2666,VALID,0,VALID,22.7647,VALID,10,VALID,1.13047,
2012-05-26, 03:35:05,VALID,999.308,VALID,0,VALID,89.5031,VALID,0,VALID,22.7257,VALID,17,VALID,1.31328,
2012-05-26, 03:36:05,VALID,999.337,VALID,0,VALID,89.9227,VALID,0.104696,VALID,22.6655,VALID,27,VALID,1.125,
2012-05-26, 03:37:05,VALID,999.346,VALID,0,VALID,90.4034,VALID,0,VALID,22.5874,VALID,27,VALID,1.16133,
2012-05-26, 03:38:05,VALID,999.323,VALID,0,VALID,90.8154,VALID,0,VALID,22.5501,VALID,33,VALID,1.14258,
2012-05-26, 03:39:05,VALID,999.311,VALID,0,VALID,91.1816,VALID,0,VALID,22.5306,VALID,33,VALID,1.00391,
2012-05-26, 03:40:05,VALID,999.335,VALID,0,VALID,91.4868,VALID,0,VALID,22.5111,VALID,45,VALID,0.575,
2012-05-26, 03:41:04,VALID,999.297,VALID,0,VALID,91.5097,VALID,0,VALID,22.4721,VALID,57,VALID,1.06289,
2012-05-26, 03:42:04,VALID,999.295,VALID,0,VALID,91.7157,VALID,0,VALID,22.4721,VALID,57,VALID,0.930078,
2012-05-26, 03:43:04,VALID,999.342,VALID,0,VALID,91.7843,VALID,0,VALID,22.4314,VALID,57,VALID,0.882813,
2012-05-26, 03:44:04,VALID,999.342,VALID,0,VALID,91.8148,VALID,0,VALID,22.4526,VALID,62,VALID,0.795703,
2012-05-26, 03:45:04,VALID,999.324,VALID,0,VALID,91.586,VALID,0,VALID,22.4119,VALID,73,VALID,0.557422,
2012-05-26, 03:46:04,VALID,999.351,VALID,0,VALID,91.4563,VALID,0,VALID,22.4331,VALID,73,VALID,0.2375,